NOAA 16 DEB, 41421

Orbit data source: Space-Track

NOAA 16 DEB, 41421 is space debris in SSO originally from a launch on Thu, 21 Sep 2000 UTC launched from the Air Force Western Test Range (AFWTR). Debris objects in space refer to the collection of defunct objects orbiting the Earth. Examples of debris include non-operational satellites, rocket bodies, and fragments generated from explosions, collisions, or faulty payload assembly.

Loading next visibility...
Identifier
41421, 2000-055LA
Orbit
SSO
Country
Flag of USUS
Related business
Manufacturer
Unknown
Mission
Spacecraft
Bus & Motor
Unknown
Mass
Unknown
Launch date (UTC)
2000-09-21 (26 years ago)
Launch vehicle
Unknown
Launch site
Air Force Western Test Range (AFWTR)
Object type
Payload
Rocket body
Debris
Shape & HBR
Unknown shape, 0.1 m
Radar Cross Section
Medium (>0.1 m² and <1 m²)

Expand to show TLE details & history
Last TLE update: 3 days ago

TLE from 3 days ago
0 NOAA 16 DEB
1 41421U 00055LA  26170.38016580  .00011417  00000-0  19146-2 0  9996
2 41421  98.9505  41.4162 0029962  49.3060 311.0739 14.69613515539088
Epoch: 2026-06-19T09:07Z
TLE epoch observation values (Epoch: 2026-06-19T09:07:26.325Z)
Latitude
-0.00001°
Longitude
-3.05346°
Altitude
651.45 km
Speed
7.539 km/s
True Right ascension
02h 45m 39s
True Declination
0° 00' 00"
Sunlit
Object was in daylight at epoch
Visualization orbit readout
Latitude
Unknown
Longitude
Unknown
Altitude
Unknown
Speed
Unknown
Apparent Right ascension
Unknown
Apparent Declination
Unknown
Sunlit
N/A
Visualization observer readout
Local Sidereal Time
21:57:14
Azimuth
Unknown
Elevation
Unknown
Doppler factor
Unknown
Orbital elements
Apogee altitude
680.493 km
Perigee altitude
638.321 km
Semi-major axis
7,037.544 km
Eccentricity
0.003
Inclination
98.9505°
RAAN
41.4162°
Arg. of periapsis
49.306°
True anomaly
310.81443°
Mean anomaly
311.0739°
Eccentric anomaly
310.94423°
Mean motion
3.6763 °/min
Orbital period
97.92 mins
BSTAR
0.0019146
Loading maneuver chart data...
Computing Atmospheric mass density...
Loading historical data...
Loading historical data...
Loading historical data...
Loading historical data...
Loading historical data...
Loading historical data...
Loading historical data...

Documentation

Showing up to 5 results
|